This demonstration page uses our WeatherBlox Daily Observations layout. Learn more.

Hourly Observations for July 21, 2020

Temp ( °F °C ) Dew Point ( °F °C ) Humidity (%) Winds ( mph kmh ) Pressure ( in mb ) Visibility ( mi km ) Precip ( " mm )
12:15 am 00:15 Cloudy with Thunderstorms 66 18.7 64 17.8 95 95 W 7 11 29.91 1013 7 11.26538 0.03 0.762
12:35 am 00:35 Cloudy with Thunderstorms 67 19.2 63 17 87 87 NW 10 17 29.92 1013 7 11.26538 0.09 2.286
12:55 am 00:55 Cloudy with Light Thunderstorms 66 18.8 63 17 89 89 NW 7 11 29.93 1013 10 16.0934 0.12 3.048
1:15 am 01:15 Cloudy with Light Rain 66 18.8 63 17 89 89 NNE 8 13 29.9 1012 10 16.0934 0.02 0.508
1:35 am 01:35 Cloudy with Light Rain 66 19 63 17.1 89 89 ENE 7 11 29.89 1012 10 16.0934 0.03 0.762
1:55 am 01:55 Mostly Cloudy with Light Rain 66 18.8 63 17.3 91 91 ENE 10 17 29.91 1013 10 16.0934 0.03 0.762
2:15 am 02:15 Partly Cloudy 66 18.8 64 17.5 92 92 E 13 20 29.92 1013 10 16.0934 0 0
2:35 am 02:35 Clear 66 18.7 64 17.5 93 93 ESE 10 17 29.92 1013 10 16.0934 0 0
2:55 am 02:55 Clear 65 18.5 63 17.3 93 93 SE 3 6 29.9 1013 10 16.0934 0 0
3:15 am 03:15 Clear 65 18.5 64 17.5 94 94 Calm 29.9 1013 10 16.0934 0 0
3:35 am 03:35 Clear 64 18 63 17.3 96 96 Calm 29.89 1012 10 16.0934 0 0
3:55 am 03:55 Clear 64 18 64 17.5 97 97 Calm 29.88 1012 10 16.0934 0 0
4:15 am 04:15 Clear 64 17.8 63 17.2 96 96 Calm 29.88 1012 10 16.0934 0 0
4:35 am 04:35 Clear 64 18 64 17.5 97 97 WSW 3 6 29.87 1012 10 16.0934 0 0
4:55 am 04:55 Clear 65 18.3 64 17.5 95 95 SW 9 15 29.86 1011 10 16.0934 0 0
5:15 am 05:15 Clear 65 18.2 63 17.2 94 94 WSW 6 9 29.88 1012 10 16.0934 0 0
5:35 am 05:35 Clear 65 18.2 63 17 93 93 W 9 15 29.9 1013 10 16.0934 0 0
5:55 am 05:55 Partly Cloudy 64 17.8 63 17 95 95 WNW 9 15 29.94 1014 10 16.0934 0 0
6:15 am 06:15 Partly Cloudy 64 17.8 63 17.1 96 96 NNW 8 13 29.95 1014 10 16.0934 0 0
6:35 am 06:35 Partly Cloudy 64 17.7 63 17 96 96 NNW 5 7 29.96 1014 7 11.26538 0 0
6:55 am 06:55 Sunny 64 17.5 62 16.7 95 95 NNW 3 6 29.96 1014 10 16.0934 0 0
7:15 am 07:15 Sunny 63 17.2 62 16.5 96 96 Calm 29.96 1015 10 16.0934 0 0
7:35 am 07:35 Sunny 63 17 61 16.3 96 96 Calm 29.98 1015 10 16.0934 0 0
7:55 am 07:55 Sunny 64 17.6 63 17 96 96 Calm 30 1016 10 16.0934 0 0
8:15 am 08:15 Sunny 66 18.8 62 16.8 88 88 Calm 29.99 1015 10 16.0934 0 0
8:35 am 08:35 Sunny 68 19.8 63 17.3 86 86 NW 3 6 29.99 1016 10 16.0934 0 0
8:55 am 08:55 Sunny 68 20 62 16.8 82 82 NW 5 7 29.98 1015 10 16.0934 0 0
9:15 am 09:15 Sunny 69 20.7 63 17.1 80 80 N 3 6 29.97 1015 10 16.0934 0 0
9:35 am 09:35 Sunny 70 21.3 63 17.1 77 77 N 3 6 29.96 1014 10 16.0934 0 0
9:55 am 09:55 Sunny 72 22.4 64 17.8 75 75 NNW 5 7 29.95 1014 10 16.0934 0 0
10:15 am 10:15 Sunny 73 23 65 18.2 74 74 N 7 11 29.93 1014 10 16.0934 0 0
10:35 am 10:35 Sunny 74 23.5 65 18.3 73 73 NE 7 11 29.93 1013 10 16.0934 0 0
10:55 am 10:55 Sunny 75 23.7 65 18.6 73 73 NE 8 13 29.94 1014 10 16.0934 0 0
11:15 am 11:15 Sunny 75 24.1 66 19 73 73 ENE 7 11 29.93 1014 7 11.26538 0 0
11:35 am 11:35 Partly Cloudy 77 24.9 67 19.5 72 72 NNE 8 13 29.92 1013 10 16.0934 0 0
11:55 am 11:55 Mostly Cloudy 77 24.8 67 19.3 72 72 NNE 8 13 29.91 1013 10 16.0934 0 0
12:15 pm 12:15 Mostly Cloudy 78 25.4 69 20.3 73 73 N 7 11 29.91 1013 10 16.0934 0 0
12:35 pm 12:35 Mostly Cloudy 77 25 67 19.6 72 72 N 8 13 29.92 1013 10 16.0934 0 0
12:55 pm 12:55 Mostly Cloudy 79 26 67 19.7 68 68 NNE 7 11 29.91 1013 10 16.0934 0 0
1:15 pm 13:15 Mostly Cloudy 79 26.2 68 19.8 68 68 NNE 6 9 29.9 1012 10 16.0934 0 0
1:35 pm 13:35 Partly Cloudy 79 26.3 68 19.8 68 68 NNE 7 11 29.9 1012 10 16.0934 0 0
1:55 pm 13:55 Mostly Cloudy 79 26.3 68 20.1 69 69 NNE 6 9 29.91 1013 10 16.0934 0 0
2:15 pm 14:15 Mostly Cloudy 78 25.8 68 20 70 70 N 7 11 29.9 1013 10 16.0934 0 0
2:35 pm 14:35 Mostly Cloudy 79 26.3 68 19.9 68 68 NNE 9 15 29.89 1012 10 16.0934 0 0
2:55 pm 14:55 Partly Cloudy 80 26.9 67 19.5 64 64 ENE 9 15 29.89 1012 10 16.0934 0 0
3:15 pm 15:15 Mostly Cloudy 81 27 67 19.4 63 63 NE 7 11 29.89 1012 10 16.0934 0 0
3:55 pm 15:55 Partly Cloudy 81 27.1 66 19.1 62 62 NNE 7 11 29.87 1012 10 16.0934 0 0
4:15 pm 16:15 Mostly Cloudy 81 27 66 19 62 62 ENE 3 6 29.86 1011 10 16.0934 0 0
4:35 pm 16:35 Mostly Cloudy 82 27.6 67 19.3 61 61 NE 6 9 29.86 1011 10 16.0934 0 0
4:55 pm 16:55 Partly Cloudy 82 27.5 66 18.9 59 59 Calm 29.87 1011 10 16.0934 0 0
5:15 pm 17:15 Partly Cloudy 82 28 67 19.3 59 59 NE 8 13 29.86 1011 10 16.0934 0 0
5:35 pm 17:35 Partly Cloudy 82 27.5 67 19.3 61 61 NNE 7 11 29.86 1011 10 16.0934 0 0
5:55 pm 17:55 Mostly Cloudy 81 27.1 68 19.8 64 64 E 6 9 29.86 1011 10 16.0934 0 0
6:15 pm 18:15 Partly Cloudy 82 27.5 67 19.5 62 62 ENE 7 11 29.86 1011 10 16.0934 0 0
6:35 pm 18:35 Partly Cloudy 80 26.4 67 19.6 66 66 NE 5 7 29.86 1011 10 16.0934 0 0
6:55 pm 18:55 Sunny 81 27.3 66 18.9 60 60 ENE 6 9 29.86 1011 10 16.0934 0 0
7:15 pm 19:15 Sunny 80 26.9 66 19.1 62 62 E 6 9 29.85 1011 10 16.0934 0 0
7:35 pm 19:35 Sunny 80 26.8 67 19.3 64 64 ENE 5 7 29.86 1011 10 16.0934 0 0
7:55 pm 19:55 Sunny 80 26.5 67 19.7 66 66 E 6 9 29.86 1011 10 16.0934 0 0
8:15 pm 20:15 Sunny 79 25.9 67 19.6 68 68 E 3 6 29.87 1011 10 16.0934 0 0
8:35 pm 20:35 undefined N/A N/A N/A E 5 7 N/A N/A 0 0
8:55 pm 20:55 Sunny 76 24.2 68 20 77 77 E 6 9 29.88 1012 10 16.0934 0 0
9:15 pm 21:15 Clear 74 23.6 68 19.9 80 80 E 6 9 29.9 1012 10 16.0934 0 0
9:35 pm 21:35 Partly Cloudy 73 23 68 20.2 84 84 E 6 9 29.91 1013 10 16.0934 0 0
9:55 pm 21:55 Clear 73 23 68 19.9 83 83 E 6 9 29.93 1014 10 16.0934 0 0
10:15 pm 22:15 Clear 73 22.9 68 19.8 83 83 E 7 11 29.93 1014 10 16.0934 0 0
10:35 pm 22:35 Clear 72 22.2 67 19.7 86 86 E 7 11 29.94 1014 10 16.0934 0 0
10:55 pm 22:55 Clear 71 21.5 67 19.5 88 88 E 7 11 29.94 1014 10 16.0934 0 0
11:15 pm 23:15 Clear 72 22 67 19.2 84 84 E 6 9 29.94 1014 10 16.0934 0 0
11:35 pm 23:35 Clear 72 22.1 67 19.5 85 85 E 7 11 29.94 1014 10 16.0934 0 0
11:55 pm 23:55 Clear 71 21.5 67 19.5 88 88 ESE 7 11 29.94 1014 10 16.0934 0 0

Powered by AerisWeather